QPF
0.00 0.00 0.00 0.00 0.00 0.00 0.00 0.00 0.00 0.00 0.00 0.00 0.00 0.00 0.00 0.00 0.00 0.00 0.00 0.00 0.00 0.00 0.00 0.00 0.00 0.00 0.00 0.00 0.00 0.00 0.00 0.00 0.00 0.00 0.00 0.00 0.00 0.03 0.00 0.00 0.00 0.00 0.00 0.01
0.00 0.00 0.00 0.00 0.00 0.00 0.00 0.00 0.00 0.00 0.00 0.00 0.00 0.00 0.00 0.00 0.00 0.00 0.00 0.00 0.00 0.00 0.00 0.00 0.00 0.00 0.00 0.00 0.00 0.00 0.00 0.00 0.00 0.00 0.00 0.00 0.01 0.04 0.00 0.00 0.00 0.00 0.00 0.02
0.00 0.00 0.00 0.00 0.00 0.00 0.00 0.00 0.00 0.00 0.00 0.00 0.00 0.00 0.00 0.00 0.00 0.00 0.00 0.00 0.00 0.00 0.00 0.00 0.00 0.00 0.00 0.00 0.00 0.00 0.00 0.00 0.01 0.00 0.00 0.00 0.00 0.00 0.00 0.00 0.00 0.00 0.00 0.00
0.00 0.00 0.00 0.00 0.00 0.00 0.00 0.00 0.00 0.00 0.00 0.00 0.00 0.00 0.00 0.00 0.00 0.00 0.00 0.00 0.00 0.00 0.00 0.00 0.00 0.00 0.00 0.00 0.00 0.00 0.00 0.00 0.00 0.00 0.00 0.00 0.00 0.00 0.00 0.00 0.01 0.01 0.00 0.00
0.00 0.00 0.00 0.00 0.00 0.00 0.00 0.00 0.00 0.00 0.00 0.00 0.00 0.00 0.00 0.00 0.00 0.00 0.00 0.00 0.00 0.00 0.00 0.00 0.00 0.00 0.00 0.00 0.00 0.00 0.00 0.00 0.00 0.00 0.00 0.00 0.00 0.00 0.00 0.00 0.01 0.13 0.01 0.00
0.00 0.00 0.00 0.00 0.00 0.00 0.00 0.00 0.00 0.00 0.00 0.00 0.00 0.00 0.00 0.00 0.00 0.00 0.00 0.00 0.00 0.00 0.00 0.00 0.00 0.00 0.00 0.00 0.00 0.00 0.00 0.00 0.00 0.00 0.00 0.00 0.00 0.00 0.00 0.00 0.00 0.03 0.01 0.00
0.00 0.00 0.00 0.00 0.00 0.00 0.00 0.00 0.00 0.00 0.00 0.00 0.00 0.00 0.00 0.00 0.00 0.00 0.00 0.00 0.00 0.00 0.00 0.00 0.00 0.00 0.00 0.00 0.00 0.00 0.00 0.00 0.00 0.00 0.00 0.00 0.00 0.00 0.00 0.00 0.00 0.00 0.00 0.00
0.00 0.00 0.00 0.00 0.00 0.00 0.00 0.00 0.00 0.00 0.00 0.00 0.00 0.00 0.00 0.00 0.00 0.00 0.00 0.00 0.00 0.00 0.00 0.00 0.00 0.00 0.00 0.00 0.00 0.00 0.00 0.00 0.00 0.00 0.00 0.00 0.00 0.00 0.00 0.00 0.00 0.00 0.00 0.00
0.00 0.00 0.00 0.00 0.00 0.00 0.00 0.00 0.00 0.00 0.00 0.00 0.00 0.00 0.00 0.00 0.00 0.00 0.00 0.00 0.00 0.00 0.00 0.00 0.00 0.00 0.00 0.01 0.00 0.01 0.00 0.00 0.00 0.00 0.00 0.00 0.00 0.00 0.00 0.00 0.00 0.00 0.00 0.00
0.00 0.00 0.00 0.00 0.00 0.00 0.00 0.00 0.00 0.00 0.00 0.00 0.00 0.00 0.00 0.00 0.00 0.00 0.00 0.00 0.00 0.00 0.00 0.00 0.00 0.00 0.00 0.00 0.02 0.02 0.01 0.00 0.00 0.00 0.00 0.00 0.00 0.00 0.00 0.00 0.00 0.00 0.00 0.00
0.00 0.00 0.00 0.00 0.00 0.00 0.00 0.00 0.00 0.00 0.00 0.00 0.00 0.00 0.00 0.00 0.00 0.00 0.00 0.00 0.00 0.00 0.00 0.00 0.00 0.00 0.00 0.00 0.00 0.01 0.04 0.01 0.00 0.00 0.00 0.00 0.00 0.00 0.00 0.00 0.00 0.00 0.00 0.00
0.00 0.00 0.00 0.00 0.00 0.00 0.00 0.00 0.00 0.00 0.00 0.00 0.00 0.00 0.00 0.00 0.00 0.00 0.00 0.00 0.00 0.00 0.00 0.00 0.00 0.00 0.00 0.00 0.00 0.02 0.01 0.01 0.00 0.00 0.00 0.00 0.00 0.00 0.00 0.00 0.00 0.00 0.00 0.00
0.00 0.00 0.00 0.00 0.00 0.00 0.00 0.00 0.00 0.00 0.00 0.00 0.00 0.00 0.00 0.00 0.00 0.00 0.00 0.00 0.00 0.00 0.00 0.00 0.00 0.00 0.00 0.00 0.02 0.02 0.02 0.01 0.02 0.01 0.00 0.00 0.00 0.00 0.00 0.00 0.00 0.00 0.00 0.00
0.00 0.00 0.00 0.00 0.00 0.00 0.00 0.00 0.00 0.00 0.00 0.00 0.00 0.00 0.00 0.00 0.00 0.00 0.00 0.00 0.00 0.00 0.00 0.00 0.00 0.00 0.00 0.00 0.00 0.00 0.00 0.01 0.03 0.00 0.00 0.00 0.00 0.00 0.00 0.00 0.00 0.00 0.00 0.00
0.00 0.00 0.00 0.00 0.00 0.00 0.00 0.00 0.00 0.00 0.00 0.00 0.00 0.00 0.00 0.00 0.00 0.00 0.00 0.00 0.00 0.00 0.00 0.00 0.00 0.00 0.00 0.00 0.00 0.00 0.00 0.00 0.01 0.00 0.00 0.00 0.00 0.00 0.00 0.00 0.00 0.00 0.00 0.00
0.00 0.00 0.00 0.00 0.00 0.00 0.00 0.00 0.00 0.00 0.00 0.00 0.00 0.00 0.00 0.00 0.00 0.00 0.00 0.00 0.00 0.00 0.00 0.00 0.00 0.00 0.00 0.00 0.01 0.00 0.00 0.00 0.00 0.01 0.03 0.04 0.00 0.00 0.00 0.00 0.00 0.00 0.00 0.00
0.00 0.00 0.00 0.00 0.00 0.00 0.00 0.00 0.00 0.00 0.00 0.00 0.00 0.00 0.00 0.00 0.00 0.00 0.01 0.00 0.00 0.00 0.00 0.00 0.00 0.00 0.00 0.01 0.00 0.00 0.00 0.00 0.00 0.00 0.00 0.01 0.00 0.00 0.00 0.00 0.00 0.00 0.00 0.00
0.00 0.00 0.00 0.00 0.00 0.00 0.00 0.00 0.00 0.00 0.00 0.00 0.00 0.00 0.00 0.00 0.00 0.00 0.01 0.00 0.00 0.01 0.02 0.02 0.00 0.00 0.00 0.00 0.00 0.00 0.00 0.00 0.00 0.00 0.00 0.00 0.00 0.01 0.07 0.03 0.01 0.00 0.00 0.00
0.00 0.00 0.00 0.00 0.00 0.00 0.00 0.00 0.00 0.00 0.00 0.00 0.00 0.00 0.00 0.00 0.00 0.00 0.00 0.00 0.00 0.00 0.00 0.00 0.00 0.00 0.00 0.00 0.00 0.00 0.00 0.00 0.00 0.00 0.00 0.00 0.00 0.00 0.02 0.06 0.06 0.00 0.00 0.01
0.00 0.00 0.00 0.00 0.00 0.00 0.00 0.00 0.00 0.00 0.00 0.00 0.00 0.00 0.00 0.00 0.00 0.00 0.00 0.00 0.00 0.00 0.00 0.00 0.00 0.00 0.00 0.00 0.00 0.00 0.00 0.00 0.00 0.00 0.00 0.00 0.00 0.00 0.00 0.00 0.03 0.11 0.19 0.16
0.00 0.00 0.00 0.00 0.00 0.00 0.00 0.00 0.00 0.00 0.00 0.00 0.00 0.00 0.00 0.00 0.00 0.00 0.00 0.00 0.00 0.00 0.00 0.00 0.00 0.00 0.00 0.00 0.00 0.00 0.00 0.00 0.00 0.00 0.00 0.00 0.01 0.12 0.11 0.28 0.46 0.51 0.55 0.41
0.00 0.00 0.00 0.00 0.00 0.00 0.00 0.00 0.00 0.00 0.00 0.00 0.00 0.00 0.00 0.00 0.00 0.00 0.00 0.00 0.00 0.00 0.00 0.00 0.00 0.00 0.00 0.00 0.00 0.00 0.00 0.00 0.00 0.01 0.03 0.03 0.16 0.17 0.22 0.24 0.28 0.30 0.27 0.28
0.00 0.00 0.00 0.00 0.00 0.00 0.00 0.00 0.00 0.00 0.00 0.00 0.00 0.00 0.00 0.00 0.00 0.00 0.00 0.00 0.00 0.00 0.00 0.00 0.00 0.00 0.00 0.00 0.00 0.00 0.00 0.00 0.00 0.00 0.01 0.05 0.06 0.06 0.06 0.11 0.10 0.10 0.20 0.24
0.00 0.00 0.00 0.00 0.00 0.00 0.00 0.00 0.00 0.00 0.00 0.00 0.00 0.00 0.00 0.00 0.00 0.00 0.00 0.00 0.00 0.00 0.00 0.00 0.00 0.00 0.00 0.00 0.00 0.00 0.00 0.00 0.00 0.00 0.00 0.01 0.03 0.04 0.05 0.03 0.04 0.10 0.13 0.13
0.00 0.00 0.00 0.00 0.00 0.00 0.00 0.00 0.00 0.00 0.00 0.00 0.00 0.00 0.00 0.00 0.00 0.00 0.00 0.00 0.00 0.00 0.00 0.00 0.00 0.00 0.00 0.00 0.00 0.00 0.00 0.00 0.00 0.00 0.00 0.00 0.00 0.01 0.02 0.03 0.06 0.08 0.14 0.16
0.00 0.00 0.00 0.00 0.00 0.00 0.00 0.00 0.00 0.00 0.00 0.00 0.00 0.00 0.00 0.00 0.00 0.00 0.00 0.00 0.00 0.00 0.00 0.00 0.00 0.00 0.00 0.00 0.00 0.00 0.00 0.00 0.00 0.00 0.00 0.00 0.00 0.00 0.02 0.12 0.06 0.04 0.15 0.20
MSLP
1006.16 1006.86 1006.83 1006.76 1006.66 1006.79 1007.04 1007.14 1006.72 1005.34 1004.89 1005.71 1005.01 1005.30 1005.68 1006.29 1007.05 1007.54 1008.35 1008.67 1008.89 1009.13 1009.05 1009.68 1010.17 1010.61 1011.29 1011.91 1012.45 1012.82 1013.36 1013.90 1014.53 1015.18 1015.63 1016.02 1016.12 1016.16 1016.24 1016.26 1016.51 1016.69 1016.71 1016.86
1006.46 1006.44 1005.72 1006.02 1006.15 1006.59 1006.87 1006.73 1006.06 1005.02 1004.77 1005.57 1005.01 1005.23 1005.38 1005.91 1005.56 1006.02 1007.09 1007.63 1008.03 1008.36 1008.90 1009.19 1009.54 1010.17 1010.55 1011.10 1011.71 1012.32 1012.69 1013.31 1013.80 1014.27 1014.84 1015.31 1015.68 1015.84 1015.90 1016.16 1016.35 1016.43 1016.52 1016.77
1006.24 1005.71 1005.30 1005.52 1005.66 1006.08 1006.26 1006.38 1005.66 1005.29 1005.13 1005.13 1005.45 1005.27 1004.94 1004.86 1005.11 1005.72 1006.10 1006.14 1006.96 1007.12 1007.64 1008.23 1008.89 1009.32 1009.89 1010.45 1010.95 1011.47 1011.88 1012.46 1013.19 1013.82 1014.55 1015.24 1015.57 1015.80 1016.08 1016.15 1016.26 1016.23 1016.22 1016.53
1006.00 1005.29 1005.08 1005.15 1005.40 1005.60 1005.72 1005.16 1005.44 1005.75 1005.94 1006.04 1005.98 1006.27 1005.44 1005.00 1004.95 1004.70 1004.87 1005.43 1005.91 1006.48 1007.00 1007.42 1007.84 1008.61 1009.11 1009.34 1010.22 1010.88 1011.41 1011.85 1012.53 1013.27 1014.10 1014.58 1014.88 1015.42 1015.53 1015.62 1015.89 1015.94 1015.97 1016.37
1005.80 1005.25 1004.96 1004.93 1004.64 1004.97 1005.02 1004.95 1005.71 1006.19 1006.88 1007.06 1006.72 1007.22 1005.44 1005.06 1004.68 1004.26 1004.27 1004.20 1004.76 1005.23 1005.87 1006.36 1006.87 1007.24 1007.99 1008.76 1009.49 1010.12 1010.80 1011.50 1011.92 1012.60 1013.30 1014.01 1014.57 1014.83 1015.17 1015.51 1015.69 1016.11 1016.15 1016.28
1005.68 1004.99 1004.72 1004.24 1003.90 1004.35 1004.93 1005.54 1006.68 1007.70 1008.25 1008.49 1007.31 1007.34 1005.88 1005.09 1004.45 1003.62 1003.20 1003.29 1003.64 1004.28 1004.96 1005.46 1005.94 1006.72 1007.22 1008.07 1009.01 1009.77 1010.48 1010.79 1011.42 1012.01 1012.67 1013.32 1013.92 1014.52 1015.04 1015.39 1015.66 1015.88 1016.13 1016.40
1005.97 1005.26 1004.70 1004.38 1004.33 1004.58 1005.27 1006.71 1008.09 1009.22 1009.90 1009.39 1008.12 1007.86 1005.39 1004.36 1003.60 1003.33 1002.52 1002.63 1002.77 1003.39 1004.20 1004.74 1005.35 1006.05 1006.93 1007.51 1008.38 1009.17 1009.92 1010.61 1010.96 1011.54 1012.12 1012.66 1013.26 1014.00 1014.46 1014.71 1015.21 1015.75 1015.94 1016.07
1007.20 1006.10 1005.21 1004.70 1004.71 1005.05 1005.99 1007.19 1008.28 1009.58 1010.87 1010.01 1009.00 1007.69 1004.62 1003.91 1003.41 1002.80 1002.03 1001.90 1002.60 1003.10 1003.60 1004.22 1004.52 1005.21 1006.04 1006.93 1007.71 1008.59 1009.33 1009.88 1010.60 1011.03 1011.43 1011.99 1012.67 1013.34 1013.87 1014.25 1014.61 1015.04 1015.24 1015.39
1007.47 1006.76 1005.72 1005.29 1005.05 1005.36 1006.11 1007.30 1008.48 1009.97 1011.21 1010.75 1009.48 1007.53 1005.18 1003.78 1003.56 1003.27 1002.67 1002.58 1002.69 1002.84 1002.96 1003.29 1003.89 1004.45 1005.34 1006.21 1006.89 1007.75 1008.67 1009.24 1009.81 1010.20 1010.85 1011.40 1011.99 1012.66 1013.06 1013.56 1014.02 1014.34 1014.71 1015.09
1007.88 1007.70 1006.92 1006.18 1005.68 1005.90 1006.33 1007.60 1008.85 1010.02 1011.42 1011.52 1010.19 1008.86 1007.20 1005.55 1004.58 1004.15 1003.63 1003.24 1003.37 1003.46 1003.60 1003.61 1003.75 1004.23 1004.56 1005.41 1006.26 1007.10 1008.02 1008.49 1008.90 1009.63 1010.22 1010.68 1011.19 1011.82 1012.41 1013.05 1013.41 1013.75 1014.07 1014.55
1007.94 1008.34 1008.10 1007.45 1007.48 1007.65 1007.62 1008.34 1009.79 1010.95 1011.44 1011.62 1010.86 1009.36 1007.36 1006.84 1006.02 1005.35 1004.76 1003.95 1003.52 1003.31 1003.35 1003.35 1003.72 1004.38 1005.03 1005.50 1006.14 1007.06 1007.69 1008.28 1008.99 1009.43 1009.84 1010.37 1010.79 1011.38 1012.00 1012.65 1012.92 1013.06 1013.45 1014.02
1008.77 1009.46 1009.59 1009.11 1008.35 1008.42 1008.32 1008.93 1009.75 1010.93 1011.86 1011.71 1010.78 1008.59 1007.45 1006.97 1006.89 1006.45 1006.20 1005.02 1004.43 1003.87 1003.19 1003.13 1003.42 1004.01 1004.74 1005.47 1006.31 1007.06 1007.43 1007.76 1008.19 1008.82 1009.29 1009.72 1010.25 1010.90 1011.56 1011.99 1012.44 1012.85 1013.14 1013.51
1009.01 1010.20 1010.59 1010.01 1009.70 1008.88 1009.06 1009.25 1009.82 1010.47 1010.94 1011.14 1010.85 1008.41 1007.33 1007.03 1007.30 1007.12 1006.66 1006.08 1005.30 1004.50 1003.90 1003.29 1003.57 1003.95 1004.38 1004.74 1005.05 1005.44 1006.25 1007.15 1008.52 1009.04 1009.55 1009.81 1010.05 1010.33 1010.77 1011.35 1011.80 1012.38 1012.87 1012.99
1009.11 1011.08 1011.45 1011.19 1010.67 1010.17 1009.80 1009.29 1009.47 1009.99 1010.57 1010.72 1009.90 1008.44 1007.65 1007.79 1007.64 1007.46 1007.04 1006.70 1006.09 1005.57 1005.23 1004.72 1004.51 1004.67 1004.76 1004.94 1005.05 1005.00 1005.76 1006.81 1007.34 1007.72 1008.05 1008.88 1009.39 1009.64 1010.10 1010.43 1011.05 1011.67 1012.19 1012.66
1010.12 1011.46 1011.65 1011.20 1010.59 1010.32 1009.66 1009.19 1009.09 1009.43 1009.28 1009.52 1008.66 1008.64 1008.16 1008.11 1008.25 1008.01 1007.54 1007.08 1006.69 1006.50 1006.20 1005.88 1005.61 1005.42 1005.48 1005.82 1006.15 1006.08 1006.60 1006.85 1006.67 1006.76 1007.51 1007.36 1008.02 1009.05 1009.68 1010.21 1010.61 1010.92 1011.21 1011.47
1011.04 1011.80 1012.10 1011.61 1010.60 1010.34 1009.74 1008.81 1008.44 1008.36 1008.29 1008.35 1008.20 1008.12 1007.86 1007.95 1008.19 1008.04 1007.76 1007.68 1007.48 1007.37 1007.03 1006.40 1006.22 1006.38 1006.38 1006.56 1007.15 1007.66 1007.59 1006.88 1006.21 1006.09 1005.77 1005.71 1006.60 1007.67 1008.68 1008.94 1009.43 1010.01 1010.58 1011.20
1011.78 1012.30 1013.10 1012.42 1011.24 1010.36 1009.63 1007.86 1007.29 1007.24 1007.40 1007.64 1007.83 1007.54 1007.87 1008.01 1008.04 1007.90 1007.71 1007.75 1007.71 1007.57 1007.48 1007.21 1006.91 1007.05 1007.15 1007.06 1006.91 1008.62 1007.35 1006.92 1006.55 1006.54 1006.20 1006.28 1006.53 1006.82 1007.09 1006.97 1007.98 1008.79 1009.26 1010.26
1011.92 1012.74 1012.99 1012.98 1011.77 1010.78 1008.41 1007.34 1007.00 1007.14 1007.00 1007.09 1007.18 1007.27 1007.53 1007.70 1007.83 1007.67 1007.53 1007.64 1007.56 1007.90 1007.38 1007.32 1007.07 1006.77 1007.06 1007.57 1007.54 1006.74 1006.04 1006.40 1006.32 1005.70 1005.35 1005.59 1005.77 1006.10 1005.93 1005.54 1005.85 1006.35 1007.61 1008.05
1011.85 1012.37 1013.16 1013.07 1012.21 1010.55 1008.06 1007.28 1006.91 1006.98 1006.97 1006.77 1006.96 1007.14 1007.37 1007.65 1007.86 1007.58 1007.30 1007.48 1007.40 1007.13 1007.09 1007.23 1007.02 1006.78 1006.28 1005.82 1005.58 1005.43 1005.03 1004.63 1004.57 1004.73 1004.80 1004.69 1004.79 1005.09 1005.33 1005.30 1005.60 1005.28 1005.97 1006.81
1012.32 1012.39 1012.76 1013.37 1012.37 1010.67 1008.16 1007.19 1006.90 1007.24 1007.11 1006.19 1006.55 1006.90 1007.26 1007.61 1007.86 1007.36 1006.91 1007.06 1007.07 1007.04 1006.95 1006.76 1006.57 1006.33 1006.23 1005.96 1005.52 1004.97 1004.83 1004.75 1004.75 1004.51 1004.09 1004.29 1004.56 1004.70 1005.00 1004.80 1004.72 1004.83 1005.19 1005.89
1012.63 1013.11 1013.13 1012.92 1011.85 1009.91 1008.14 1007.29 1007.10 1007.68 1007.42 1006.45 1006.58 1006.94 1007.33 1007.63 1006.85 1006.49 1006.28 1006.28 1006.28 1006.38 1006.31 1006.11 1005.93 1005.94 1005.97 1005.90 1005.76 1005.54 1005.49 1005.48 1005.10 1004.33 1003.77 1003.67 1003.64 1003.86 1004.03 1004.65 1005.02 1005.47 1006.41 1004.31
1012.42 1012.63 1012.81 1012.74 1011.51 1009.80 1008.09 1007.61 1007.70 1007.60 1007.08 1006.64 1006.60 1006.79 1007.11 1007.14 1006.85 1006.73 1006.66 1006.50 1006.49 1006.58 1006.46 1006.47 1006.62 1006.66 1006.51 1006.56 1006.43 1006.04 1005.74 1005.62 1005.13 1004.76 1004.06 1003.76 1003.70 1003.39 1003.62 1004.20 1005.08 1005.28 1005.71 1006.15
1012.18 1011.52 1011.69 1011.62 1010.28 1009.08 1008.35 1007.86 1007.67 1007.58 1007.47 1007.17 1007.11 1007.00 1006.94 1006.80 1006.62 1006.54 1006.58 1006.69 1006.72 1006.80 1006.97 1007.06 1007.19 1007.24 1007.11 1006.71 1006.45 1006.04 1005.63 1005.38 1005.29 1005.17 1004.67 1004.28 1003.91 1004.00 1003.98 1004.30 1004.87 1004.93 1005.08 1006.13
1011.59 1011.41 1011.49 1011.14 1009.84 1009.09 1008.52 1007.96 1007.69 1007.61 1007.38 1007.13 1006.93 1006.89 1006.91 1007.00 1006.73 1006.48 1006.43 1006.55 1006.76 1006.83 1006.98 1007.10 1007.33 1007.39 1006.94 1006.51 1006.21 1005.81 1005.51 1005.27 1005.17 1005.11 1004.76 1004.61 1004.39 1004.15 1004.14 1004.18 1004.92 1005.04 1004.96 1004.73
1011.69 1011.34 1011.25 1010.73 1009.30 1009.06 1008.48 1007.94 1007.75 1007.50 1007.28 1007.22 1007.11 1007.01 1006.86 1006.84 1006.77 1006.77 1006.74 1006.77 1006.92 1007.02 1007.10 1007.20 1007.28 1007.19 1006.90 1006.53 1005.93 1005.17 1004.83 1004.83 1004.90 1004.76 1004.43 1004.05 1004.10 1004.02 1004.19 1004.48 1004.62 1005.01 1004.55 1004.61
1011.01 1010.60 1010.71 1009.90 1008.67 1009.00 1008.44 1007.87 1007.46 1007.51 1007.16 1006.95 1006.99 1006.86 1006.63 1006.81 1006.82 1006.82 1006.89 1006.90 1006.97 1007.13 1007.27 1007.32 1007.30 1007.16 1006.67 1006.11 1005.61 1004.85 1004.53 1004.35 1004.31 1004.36 1004.21 1003.83 1003.72 1003.83 1003.95 1004.28 1004.59 1004.36 1004.40 1004.74
Thickness
5809 5789 5785 5800 5805 5809 5804 5792 5792 5816 5833 5815 5824 5822 5828 5829 5826 5818 5809 5808 5806 5805 5808 5806 5803 5801 5798 5794 5790 5788 5785 5781 5777 5772 5768 5765 5765 5767 5767 5768 5765 5765 5766 5765
5788 5782 5811 5816 5813 5804 5799 5793 5793 5818 5831 5819 5823 5818 5833 5831 5836 5835 5822 5817 5814 5812 5809 5807 5805 5801 5800 5798 5796 5793 5792 5788 5783 5780 5775 5772 5770 5768 5767 5764 5763 5763 5764 5763
5779 5800 5816 5811 5808 5803 5798 5792 5801 5808 5823 5825 5816 5809 5829 5841 5842 5840 5837 5836 5827 5823 5817 5813 5809 5808 5807 5803 5802 5801 5801 5798 5790 5785 5778 5772 5770 5768 5764 5761 5761 5763 5764 5763
5792 5808 5810 5803 5798 5803 5790 5815 5815 5812 5803 5780 5816 5770 5808 5826 5831 5841 5845 5839 5834 5830 5828 5823 5819 5814 5814 5815 5811 5808 5806 5804 5799 5791 5782 5777 5774 5768 5769 5767 5765 5764 5763 5762
5787 5801 5801 5794 5805 5809 5803 5825 5816 5810 5794 5796 5798 5778 5802 5818 5824 5834 5842 5849 5844 5841 5837 5832 5828 5828 5826 5823 5817 5815 5810 5807 5806 5800 5792 5785 5777 5777 5774 5770 5767 5763 5765 5763
5792 5812 5809 5807 5822 5816 5820 5811 5793 5777 5771 5750 5785 5779 5786 5810 5829 5840 5850 5854 5853 5848 5843 5842 5839 5834 5832 5830 5822 5818 5813 5812 5809 5805 5799 5792 5785 5779 5774 5771 5769 5768 5767 5766
5783 5797 5806 5815 5806 5814 5801 5777 5742 5749 5735 5742 5772 5763 5797 5826 5839 5845 5855 5856 5859 5856 5848 5845 5841 5836 5831 5830 5826 5823 5818 5812 5812 5809 5804 5799 5793 5785 5781 5778 5774 5770 5769 5770
5747 5751 5794 5810 5806 5796 5790 5772 5743 5736 5726 5746 5760 5757 5806 5835 5840 5849 5861 5866 5860 5856 5854 5848 5848 5845 5840 5835 5831 5825 5821 5818 5815 5812 5810 5805 5798 5791 5786 5784 5781 5777 5776 5776
5752 5763 5795 5803 5805 5802 5790 5768 5774 5734 5726 5732 5742 5774 5811 5834 5837 5843 5853 5854 5853 5857 5858 5856 5855 5851 5845 5840 5837 5832 5826 5824 5820 5819 5813 5809 5804 5796 5792 5789 5786 5784 5781 5778
5770 5757 5782 5789 5800 5798 5789 5785 5758 5741 5735 5740 5739 5744 5758 5800 5817 5828 5837 5848 5848 5848 5848 5852 5854 5850 5852 5848 5842 5838 5831 5828 5826 5821 5817 5813 5809 5804 5798 5792 5790 5789 5786 5781
5771 5758 5762 5777 5768 5762 5761 5758 5742 5734 5725 5717 5716 5741 5790 5793 5804 5812 5827 5839 5847 5849 5849 5852 5851 5847 5844 5844 5841 5835 5831 5827 5821 5819 5816 5812 5811 5806 5801 5795 5794 5794 5792 5785
5764 5740 5733 5749 5765 5765 5771 5762 5743 5729 5739 5714 5721 5743 5792 5798 5802 5812 5814 5827 5837 5845 5854 5856 5855 5852 5846 5842 5837 5832 5832 5829 5826 5821 5818 5815 5813 5809 5803 5801 5798 5794 5793 5789
5764 5729 5710 5721 5738 5757 5747 5755 5744 5731 5725 5727 5722 5747 5795 5797 5798 5805 5809 5817 5825 5838 5844 5853 5853 5850 5849 5849 5847 5846 5840 5833 5821 5816 5811 5810 5810 5810 5806 5802 5800 5796 5792 5792
5760 5720 5721 5704 5719 5732 5740 5749 5748 5737 5721 5724 5726 5758 5783 5784 5787 5797 5804 5810 5817 5824 5830 5836 5840 5843 5847 5847 5846 5847 5843 5834 5830 5828 5824 5817 5813 5811 5806 5806 5801 5797 5793 5789
5751 5729 5727 5731 5733 5734 5739 5743 5746 5742 5743 5735 5753 5752 5773 5777 5779 5786 5796 5805 5808 5811 5817 5823 5828 5834 5836 5833 5831 5835 5831 5828 5831 5832 5829 5828 5824 5813 5806 5800 5797 5797 5796 5795
5734 5723 5725 5728 5735 5729 5730 5739 5738 5740 5747 5736 5746 5749 5771 5777 5780 5784 5790 5793 5798 5800 5805 5813 5818 5820 5822 5821 5814 5815 5817 5825 5832 5831 5836 5835 5831 5822 5812 5808 5800 5794 5791 5790
5725 5710 5701 5707 5716 5720 5716 5733 5743 5754 5753 5750 5739 5757 5762 5765 5770 5777 5783 5786 5788 5791 5796 5801 5807 5806 5805 5805 5806 5793 5813 5817 5820 5819 5824 5824 5824 5821 5816 5819 5813 5804 5797 5785
5709 5704 5693 5697 5708 5697 5730 5748 5753 5747 5754 5754 5755 5757 5758 5760 5765 5771 5776 5778 5781 5780 5787 5790 5796 5802 5801 5796 5799 5810 5816 5813 5810 5817 5823 5820 5817 5814 5816 5821 5819 5816 5803 5799
5718 5706 5692 5694 5684 5708 5743 5747 5747 5740 5739 5754 5754 5758 5757 5757 5757 5761 5769 5769 5773 5780 5783 5782 5787 5790 5797 5802 5805 5807 5810 5814 5815 5814 5813 5813 5814 5811 5807 5803 5804 5812 5806 5797
5706 5705 5700 5676 5691 5690 5725 5746 5751 5741 5714 5757 5754 5750 5749 5749 5735 5744 5764 5765 5767 5770 5773 5778 5783 5785 5785 5787 5792 5796 5797 5797 5798 5801 5806 5804 5800 5798 5796 5801 5800 5802 5794 5789
5693 5688 5686 5674 5682 5698 5727 5743 5744 5707 5715 5748 5751 5748 5741 5737 5749 5760 5766 5765 5768 5769 5772 5776 5776 5774 5773 5774 5775 5777 5779 5779 5784 5792 5797 5796 5796 5792 5791 5787 5784 5779 5767 5756
5694 5686 5677 5667 5677 5684 5732 5733 5723 5721 5732 5739 5741 5741 5739 5739 5744 5749 5750 5752 5753 5754 5758 5761 5758 5756 5758 5758 5759 5763 5764 5768 5773 5776 5780 5784 5784 5786 5781 5775 5770 5768 5768 5758
5687 5695 5685 5682 5686 5708 5718 5721 5725 5721 5720 5725 5726 5730 5732 5734 5738 5741 5740 5741 5741 5741 5739 5742 5742 5742 5743 5746 5749 5751 5755 5760 5761 5760 5765 5768 5771 5770 5770 5769 5763 5760 5763 5756
5696 5690 5681 5686 5702 5700 5708 5714 5716 5717 5718 5721 5723 5722 5721 5717 5723 5728 5731 5732 5730 5731 5729 5730 5727 5728 5732 5736 5738 5742 5744 5747 5749 5748 5751 5753 5756 5758 5759 5761 5754 5753 5754 5755
5686 5686 5673 5668 5692 5689 5695 5699 5701 5705 5710 5708 5708 5709 5710 5710 5709 5709 5712 5716 5717 5717 5717 5717 5715 5716 5721 5724 5729 5735 5739 5738 5737 5739 5743 5747 5747 5748 5748 5746 5746 5741 5744 5745
5681 5674 5657 5666 5695 5679 5687 5696 5696 5692 5695 5696 5693 5695 5699 5697 5696 5698 5696 5697 5699 5700 5700 5701 5701 5704 5710 5715 5720 5726 5730 5731 5730 5730 5731 5736 5738 5737 5738 5735 5731 5736 5736 5730